Weather History for Fairbanks, AK

Change the Weather History Date:

Tuesday, July 1, 2014

  Actual Average Record
Temperature  
Mean Temperature 57 °F 64 °F  
Max Temperature 59 °F 74 °F 88 °F (1990)
Min Temperature 55 °F 53 °F 31 °F (1905)
Degree Days  
Heating Degree Days 8 3  
Month to date heating degree days 8 3  
Since 1 June heating degree days 200 163  
Since 1 July heating degree days 8 3  
Cooling Degree Days 0 2  
Month to date cooling degree days 0 2  
Year to date cooling degree days 1 26  
Since 1 June cooling degree days 1 25  
Growing Degree Days 8 (Base 50)    
Moisture  
Dew Point 54 °F    
Average Humidity 88    
Maximum Humidity 93    
Minimum Humidity 82    
Precipitation  
Precipitation 1.92 in 0.06 in 1.92 in (2014)
Month to date precipitation 1.92 0.06  
Year to date precipitation 6.57 3.59  
Snow  
Snow 0.00 in 0.00 in 0.00 in (2002)
Month to date snowfall 0.0 0.0  
Since 1 June snowfall 0.0 0.0  
Since 1 July snowfall 0.0 0.0  
Snow Depth 0.00 in    
Sea Level Pressure  
Sea Level Pressure 29.95 in    
Wind  
Wind Speed 4 mph (SW)    
Max Wind Speed 9 mph    
Max Gust Speed -    
Visibility 4 miles    
Events Rain    
T = Trace of Precipitation, MM = Missing Value Source: NWS Daily Summary

Daily Weather History Graph

Daily Weather History Graph

Search for Another Location

Airport:

Trip Planner

Search our weather history database for the weather conditions in past years. The results will help you decide how hot, cold, wet, or windy it might be!

Date:

Astronomy

Jul. 01, 2014 Rise Set
Actual Time 3:12 AM AKDT 12:36 AM AKDT
Civil Twilight Sun does not rise Sun does not rise
Nautical Twilight Sun does not rise Sun does not rise
Astronomical Twilight Sun does not rise Sun does not rise
Moon 9:59 AM AKDT (7/1) 12:14 AM AKDT (7/1)
Length of Visible Light 24h 00m
Length of Day
21h 23m
Waxing Crescent, 18% of the Moon is Illuminated
Jul 1
Waxing Crescent
Jul 5
First Quarter
Jul 12
Full
Jul 18
Last Quarter
Jul 26
New

Hourly Weather History & Observations

Time (AKDT) Temp. Dew Point Humidity Pressure Visibility Wind Dir Wind Speed Gust Speed Precip Events Conditions
12:53 AM 59.0 °F 55.0 °F 87% 29.99 in 9.0 mi Calm Calm - 0.01 in Rain Light Rain
1:53 AM 57.9 °F 55.0 °F 90% 30.00 in 6.0 mi Calm Calm - 0.06 in Rain Light Rain
2:53 AM 57.9 °F 54.0 °F 87% 29.99 in 4.0 mi WSW 4.6 mph - 0.06 in Rain Rain
3:53 AM 57.0 °F 54.0 °F 89% 29.99 in 3.0 mi Variable 4.6 mph - 0.10 in Rain Rain
4:53 AM 57.0 °F 54.0 °F 89% 29.98 in 4.0 mi SW 5.8 mph - 0.03 in Rain Light Rain
5:12 AM 57.0 °F 53.1 °F 87% 29.96 in 4.0 mi Variable 3.5 mph - 0.00 in Rain Light Rain
5:53 AM 55.9 °F 53.1 °F 90% 29.97 in 3.0 mi SSW 6.9 mph - 0.02 in Rain Light Rain
6:53 AM 55.9 °F 53.1 °F 90% 29.97 in 3.0 mi Variable 4.6 mph - 0.02 in Rain Light Rain
7:03 AM 55.9 °F 53.1 °F 90% 29.96 in 2.0 mi SSW 5.8 mph - 0.01 in Rain Light Rain
7:53 AM 55.9 °F 53.1 °F 90% 29.97 in 2.5 mi SW 3.5 mph - 0.08 in Rain Rain
8:38 AM 55.9 °F 53.1 °F 90% 29.95 in 4.0 mi SW 4.6 mph - 0.07 in Rain Light Rain
8:53 AM 57.0 °F 53.1 °F 87% 29.96 in 4.0 mi WSW 6.9 mph - 0.08 in Rain Light Rain
9:53 AM 57.0 °F 54.0 °F 89% 29.96 in 4.0 mi WSW 4.6 mph - 0.04 in Rain Light Rain
10:53 AM 57.0 °F 54.0 °F 89% 29.96 in 4.0 mi Variable 5.8 mph - 0.06 in Rain Light Rain
11:53 AM 57.0 °F 53.1 °F 87% 29.96 in 5.0 mi Variable 5.8 mph - 0.03 in Rain Light Rain
12:20 PM 57.0 °F 53.1 °F 87% 29.95 in 4.0 mi WSW 6.9 mph - 0.02 in Rain Light Rain
12:42 PM 57.0 °F 53.1 °F 87% 29.95 in 3.0 mi Variable 6.9 mph - 0.04 in Rain Light Rain
12:53 PM 57.0 °F 53.1 °F 87% 29.96 in 3.0 mi WSW 6.9 mph - 0.05 in Rain Rain
1:53 PM 57.0 °F 53.1 °F 87% 29.96 in 3.0 mi SW 6.9 mph - 0.07 in Rain Light Rain
2:53 PM 57.0 °F 53.1 °F 87% 29.96 in 3.0 mi Variable 4.6 mph - 0.09 in Rain Light Rain
3:53 PM 57.0 °F 53.1 °F 87% 29.96 in 4.0 mi SW 5.8 mph - 0.09 in Rain Light Rain
4:53 PM 57.0 °F 54.0 °F 89% 29.95 in 4.0 mi SW 4.6 mph - 0.09 in Rain Light Rain
5:53 PM 57.9 °F 54.0 °F 87% 29.94 in 6.0 mi Variable 5.8 mph - 0.04 in Rain Light Rain
6:02 PM 57.0 °F 54.0 °F 89% 29.92 in 6.0 mi SW 3.5 mph - 0.00 in Rain Light Rain
6:53 PM 57.0 °F 54.0 °F 89% 29.93 in 4.0 mi SW 4.6 mph - 0.01 in Rain Light Rain
7:20 PM 57.0 °F 54.0 °F 89% 29.91 in 2.0 mi SSW 5.8 mph - 0.01 in Rain Light Rain
7:46 PM 57.0 °F 54.0 °F 89% 29.91 in 1.2 mi SW 4.6 mph - 0.03 in Rain Rain
7:53 PM 57.0 °F 54.0 °F 89% 29.92 in 1.2 mi SSW 4.6 mph - 0.06 in Rain Heavy Rain
8:53 PM 57.9 °F 55.0 °F 90% 29.91 in 1.5 mi SSW 6.9 mph - 0.23 in Rain Rain
9:31 PM 57.0 °F 53.1 °F 87% 29.90 in 2.0 mi SW 6.9 mph - 0.12 in Rain Rain
9:53 PM 55.9 °F 53.1 °F 90% 29.91 in 2.5 mi SW 9.2 mph - 0.17 in Rain Rain
10:53 PM 55.9 °F 53.1 °F 90% 29.90 in 3.0 mi SW 6.9 mph - 0.11 in Rain Rain
11:31 PM 55.9 °F 53.1 °F 90% 29.89 in 2.5 mi WSW 8.1 mph - 0.10 in Rain Rain
11:53 PM 55.0 °F 53.1 °F 93% 29.90 in 2.0 mi SW 6.9 mph - 0.15 in Rain Rain